Location: ??? ?????
(30.6482°N, 60.5850°E)
Time: 04:51:04
(UTC+00:00)

Cosmos 1190 Rocket - Pass Details

Date: 09 April 2020
Orbit: 757 x 779 km, 74.1° (Epoch: 05 June)

Event Time Altitude Azimuth Distance (km) Brightness Sun altitude
Rises 15:12:07 0° 191° (SSW) 3,245 7.2 -11.3°
Reaches altitude 10° 15:14:29 10° 190° (S) 2,320 6.4 -11.8°
Maximum altitude 15:19:46 79° 105° (ESE) 794 3.9 -12.9°
Drops below altitude 10° 15:25:03 10° 19° (NNE) 2,324 6.5 -14.0°
Sets 15:27:25 0° 18° (NNE) 3,252 7.3 -14.5°
